Simultaneous Nadir Overpasses (SNOs) Predictions

Prediction of SNOs between FY3D and NOAA-19 Satellite Orbit:

Table of predicted SNOs for the next 14.0 days since TLE Epoch: 1/8/2022
Index Date (FY3D) Time (FY3D) Lat,Lon (FY3D) SZA (FY3D ) Date (NOAA-19) Time (NOAA-19) Lat,Lon (NOAA-19) SZA (NOAA-19 ) Distance(km) Time Diff (sec)
1 01/17/2022 06:46:03 77.91, 58.63 99.43 01/17/2022 06:44:49 77.89, 58.67 99.44 2.04 74
2 01/17/2022 07:36:49 -77.91,-134.05 80.58 01/17/2022 07:35:47 -77.91,-133.97 80.56 2.08 62
3 01/17/2022 08:27:34 77.89, 33.35 99.39 01/17/2022 08:26:49 77.90, 33.20 99.43 3.52 45
4 01/17/2022 09:18:21 -77.93,-159.54 80.57 01/17/2022 09:17:47 -77.92,-159.44 80.58 2.65 34
5 01/17/2022 10:09:06 77.91, 7.86 99.41 01/17/2022 10:08:49 77.90, 7.74 99.42 3.00 17
6 01/17/2022 10:59:52 -77.91, 175.18 80.61 01/17/2022 10:59:47 -77.92, 175.09 80.59 2.59 5
7 01/17/2022 11:50:38 77.93, -17.63 99.42 01/17/2022 11:50:48 77.95, -17.52 99.42 3.14 10
8 01/17/2022 12:41:24 -77.93, 149.69 80.59 01/17/2022 12:41:47 -77.93, 149.62 80.60 1.79 23
9 01/17/2022 13:32:10 77.95, -43.11 99.43 01/17/2022 13:32:48 77.95, -42.98 99.41 3.02 38
10 01/17/2022 14:22:56 -77.95, 124.21 80.58 01/17/2022 14:23:47 -77.93, 124.15 80.61 2.50 51
11 01/17/2022 15:13:41 77.93, -68.39 99.39 01/17/2022 15:14:48 77.96, -68.45 99.40 3.18 67
12 01/17/2022 16:04:32 -78.13, 97.87 80.35 01/17/2022 16:05:42 -78.12, 99.77 80.52 43.58 70



Historial Predications of SNOs between FY3D and NOAA-19
